Location: Foligno
(42.9600°N, 12.7050°E)
Time: 17:06:05
(UTC+02:00)

ISS - Pass Details

Date: 24 May 2020
Orbit: 417 x 420 km, 51.6° (Epoch: 26 May)

Event Time Altitude Azimuth Distance (km) Brightness Sun altitude
Rises 21:30:36 0° 290° (WNW) 2,363 1.6 -9.1°
Reaches altitude 10° 21:33:09 10° 309° (NW) 1,500 0.7 -9.5°
Maximum altitude 21:35:36 19° 356° (N) 1,087 -1.0 -9.8°
Drops below altitude 10° 21:38:04 10° 43° (NE) 1,502 -1.0 -10.2°
Sets 21:40:37 0° 63° (ENE) 2,367 -0.1 -10.5°
